This is the latest recevied weather packets stored in our database for station/object K9ZOG. If no packets are shown the sender has not sent any weather packets the latest 10 day(s).
| Time | Temp. | Humidity | Pressure | Rain* | Wind** | Luminosity | Snow |
|---|---|---|---|---|---|---|---|
| 1777955356 | 13.33° C | 80% | 1000.1 hPa | 0 mm | - | 0 W/m² | - |
| 1777955053 | 13.33° C | 80% | 1000.2 hPa | 0 mm | - | 0 W/m² | - |
| 1777954752 | 13.33° C | 79% | 1000.3 hPa | 0 mm | - | 0 W/m² | - |
| 1777954453 | 13.33° C | 79% | 1000.5 hPa | 0 mm | - | 0 W/m² | - |
| 1777954152 | 13.89° C | 78% | 1000.1 hPa | 0 mm | - | 0 W/m² | - |
| 1777953852 | 13.89° C | 77% | 1000 hPa | 0 mm | - | 0 W/m² | - |
| 1777953552 | 13.89° C | 77% | 1000 hPa | 0 mm | - | 0 W/m² | - |
| 1777953253 | 14.44° C | 76% | 999.6 hPa | 0 mm | - | 0 W/m² | - |
| 1777952953 | 15° C | 74% | 999.5 hPa | 0 mm | - | 0 W/m² | - |
| 1777952652 | 16.11° C | 73% | 999.9 hPa | 0 mm | - | 0 W/m² | - |
| 1777952352 | 17.22° C | 69% | 999.8 hPa | 0 mm | - | 0 W/m² | - |
| 1777952052 | 17.78° C | 68% | 999.7 hPa | 0 mm | - | 0 W/m² | - |
| 1777951753 | 17.78° C | 67% | 999.2 hPa | 0 mm | - | 0 W/m² | - |
| 1777951452 | 17.78° C | 67% | 998.7 hPa | 0 mm | - | 0 W/m² | - |
| 1777951153 | 17.78° C | 68% | 998.4 hPa | 0 mm | - | 0 W/m² | - |
| 1777950852 | 17.78° C | 69% | 998.3 hPa | 0 mm | - | 0 W/m² | - |
| 1777950552 | 17.78° C | 69% | 998.3 hPa | 0 mm | - | 0 W/m² | - |
| 1777950254 | 17.78° C | 70% | 998.1 hPa | 0 mm | - | 0 W/m² | - |
| 1777949956 | 17.78° C | 70% | 997.8 hPa | 0 mm | - | 0 W/m² | - |
| 1777949654 | 17.78° C | 70% | 997.8 hPa | 0 mm | - | 0 W/m² | - |
| 1777949356 | 17.22° C | 70% | 997.7 hPa | 0 mm | - | 0 W/m² | - |
| 1777949055 | 17.22° C | 69% | 997.8 hPa | 0 mm | - | 0 W/m² | - |
| 1777948756 | 17.22° C | 68% | 997.9 hPa | 0.76 mm | - | 0 W/m² | - |
| 1777948454 | 17.22° C | 69% | 997.7 hPa | 0.76 mm | - | 0 W/m² | - |
| 1777948156 | 17.22° C | 68% | 997.8 hPa | 0.76 mm | - | 0 W/m² | - |
* Rain latest hour (hover to see other rain measurements)
** Current wind speed in m/s (hover to see current wind gust speed)